Ravenna, OH

2:06 AM EST on February 14, 2016 (GMT -0500)
Ravenna

Weather History for KPOV - May, 2013

Change the Weather History Date:

Sunday, May 19, 2013

  Actual Average (KCAK) Record (KCAK)
Temperature  
Mean Temperature 69 °F 60 °F  
Max Temperature 80 °F 70 °F 91 °F (1911)
Min Temperature 58 °F 49 °F 32 °F (2002)
Degree Days  
Heating Degree Days 0 7  
Month to date heating degree days 164  
Since 1 July heating degree days 6040  
Cooling Degree Days 4 1  
Month to date cooling degree days 13  
Year to date cooling degree days 19  
Growing Degree Days 19 (Base 50)    
Moisture  
Dew Point 60 °F    
Average Humidity 73    
Maximum Humidity 100    
Minimum Humidity 49    
Precipitation  
Precipitation 0.00 in 0.14 in 1.31 in (2000)
Month to date precipitation 2.56  
Year to date precipitation 14.01  
Snow  
Snow 0.00 in 0.00 in - ()
Month to date snowfall 0.1  
Since 1 July snowfall 47.5  
Snow Depth -    
Sea Level Pressure  
Sea Level Pressure 30.04 in    
Wind  
Wind Speed 6 mph (ESE)    
Max Wind Speed 10 mph    
Max Gust Speed 16 mph    
Visibility 9 miles    
Events      
T = Trace of Precipitation, MM = Missing Value Source: NWS Daily Summary

Daily Weather History Graph

Daily Weather History Graph

Search for Another Location

Airport or City:

Trip Planner

Search our weather history database for the weather conditions in past years. The results will help you decide how hot, cold, wet, or windy it might be!

Date:

Astronomy

May. 19, 2013 Rise Set
Actual Time 6:02 AM EDT 8:40 PM EDT
Civil Twilight 5:30 AM EDT 9:12 PM EDT
Nautical Twilight 4:51 AM EDT 9:52 PM EDT
Astronomical Twilight 4:06 AM EDT 10:37 PM EDT
Moon 2:40 PM EDT (5/19) 2:29 AM EDT (5/19)
Length of Visible Light 15h 41m
Length of Day
14h 37m
Waxing Gibbous, 65% of the Moon is Illuminated
May 19
Waxing Gibbous
May 25
Full
May 31
Last Quarter
Jun 8
New
Jun 16
First Quarter

Hourly Weather History & Observations

Time (EDT) Temp. Heat Index Dew Point Humidity Pressure Visibility Wind Dir Wind Speed Gust Speed Precip Events Conditions
12:14 AM 66.0 °F - 55.6 °F 69% 30.07 in 10.0 mi ESE 5.8 mph - N/A   Clear
12:33 AM 65.8 °F - 56.3 °F 71% 30.07 in 10.0 mi ESE 4.6 mph - N/A   Clear
12:53 AM 65.5 °F - 57.2 °F 75% 30.07 in 10.0 mi ESE 5.8 mph - N/A   Clear
1:14 AM 65.3 °F - 57.4 °F 76% 30.07 in 10.0 mi ESE 4.6 mph - N/A   Clear
1:34 AM 64.4 °F - 57.4 °F 78% 30.06 in 10.0 mi ESE 5.8 mph - N/A   Clear
1:53 AM 63.5 °F - 57.4 °F 80% 30.06 in 10.0 mi East 5.8 mph - N/A   Clear
2:14 AM 63.5 °F - 57.6 °F 81% 30.06 in 10.0 mi East 4.6 mph - N/A   Clear
2:34 AM 62.6 °F - 57.6 °F 84% 30.06 in 10.0 mi East 4.6 mph - N/A   Clear
2:53 AM 62.6 °F - 58.3 °F 86% 30.05 in 10.0 mi East 8.1 mph - N/A   Clear
3:14 AM 61.9 °F - 59.0 °F 90% 30.05 in 10.0 mi East 6.9 mph - N/A   Clear
3:33 AM 61.7 °F - 59.5 °F 93% 30.05 in 10.0 mi East 6.9 mph - N/A   Clear
3:54 AM 61.2 °F - 60.8 °F 99% 30.05 in 10.0 mi East 6.9 mph - N/A   Clear
4:14 AM 60.8 °F - 60.8 °F 100% 30.05 in 10.0 mi ESE 6.9 mph - N/A   Clear
4:34 AM 60.1 °F - 60.3 °F 100% 30.05 in 10.0 mi East 8.1 mph - N/A   Clear
4:53 AM - - - N/A% 30.06 in 7.0 mi East 6.9 mph - N/A   Clear
5:14 AM 59.4 °F - 59.7 °F 100% 30.06 in 7.0 mi East 6.9 mph - N/A   Clear
5:34 AM 59.0 °F - 59.2 °F 100% 30.07 in 7.0 mi East 6.9 mph - N/A   Clear
5:53 AM 58.8 °F - 59.0 °F 100% 30.08 in 7.0 mi East 5.8 mph - N/A   Clear
6:14 AM 58.5 °F - 58.8 °F 100% 30.08 in 5.0 mi East 6.9 mph - N/A   Clear
6:33 AM 58.5 °F - 58.8 °F 100% 30.09 in 4.0 mi ESE 4.6 mph - N/A   Clear
6:54 AM 59.0 °F - 59.0 °F 100% 30.10 in 5.0 mi East 6.9 mph - N/A   Clear
7:14 AM 59.4 °F - 59.5 °F 100% 30.10 in 5.0 mi East 6.9 mph - N/A   Clear
7:33 AM - - - N/A% 30.10 in 5.0 mi East 6.9 mph - N/A   Scattered Clouds
8:14 AM 61.0 °F - 61.2 °F 100% 30.11 in 7.0 mi ESE 5.8 mph - N/A   Overcast
8:34 AM 61.7 °F - 61.9 °F 100% 30.10 in 10.0 mi ESE 6.9 mph - N/A   Overcast
8:53 AM 62.6 °F - 62.4 °F 99% 30.10 in 10.0 mi ESE 6.9 mph - N/A   Overcast
9:14 AM 65.3 °F - 63.1 °F 93% 30.10 in 10.0 mi SE 4.6 mph - N/A   Mostly Cloudy
9:34 AM 66.9 °F - 60.1 °F 79% 30.09 in 10.0 mi SE 6.9 mph - N/A   Scattered Clouds
9:53 AM 68.2 °F - 60.3 °F 76% 30.08 in 10.0 mi ESE 6.9 mph - N/A   Clear
10:14 AM 69.8 °F - 60.3 °F 72% 30.08 in 10.0 mi SSE 4.6 mph - N/A   Clear
10:53 AM 71.8 °F - 60.4 °F 67% 30.07 in 10.0 mi SSE 5.8 mph - N/A   Clear
11:14 AM 73.0 °F - 61.0 °F 66% 30.07 in 10.0 mi SE 5.8 mph - N/A   Clear
11:33 AM 73.9 °F - 61.2 °F 64% 30.06 in 10.0 mi SE 5.8 mph - N/A   Clear
11:53 AM 75.4 °F - 61.2 °F 61% 30.06 in 10.0 mi SSE 5.8 mph - N/A   Scattered Clouds
12:14 PM 76.5 °F - 61.3 °F 59% 30.04 in 10.0 mi SE 6.9 mph - N/A   Scattered Clouds
12:34 PM 75.4 °F - 60.4 °F 60% 30.04 in 10.0 mi ESE 9.2 mph - N/A   Mostly Cloudy
12:53 PM 76.6 °F - 60.1 °F 56% 30.04 in 10.0 mi SE 6.9 mph - N/A   Mostly Cloudy
1:14 PM 76.3 °F - 59.5 °F 56% 30.04 in 10.0 mi ESE 6.9 mph - N/A   Mostly Cloudy
1:33 PM 77.0 °F - 59.4 °F 54% 30.04 in 10.0 mi East 6.9 mph - N/A   Mostly Cloudy
1:54 PM 78.6 °F - 60.3 °F 53% 30.03 in 10.0 mi SSE 4.6 mph - N/A   Mostly Cloudy
2:14 PM 78.6 °F - 59.7 °F 52% 30.02 in 10.0 mi SE 5.8 mph - N/A   Scattered Clouds
2:33 PM 79.2 °F - 59.5 °F 51% 30.01 in 10.0 mi South 5.8 mph - N/A   Scattered Clouds
3:14 PM 78.8 °F - 60.4 °F 53% 29.99 in 10.0 mi SE 10.4 mph 16.1 mph N/A   Mostly Cloudy
3:34 PM 79.2 °F - 61.2 °F 54% 29.99 in 10.0 mi SSE 4.6 mph - N/A   Mostly Cloudy
4:14 PM 77.4 °F - 59.7 °F 54% 30.00 in 10.0 mi SE 3.5 mph - N/A   Overcast
4:33 PM 80.1 °F 80.8 °F 59.5 °F 49% 30.00 in 10.0 mi SE 6.9 mph - N/A   Overcast
4:54 PM 80.4 °F 81.2 °F 60.1 °F 50% 29.99 in 10.0 mi SE 9.2 mph - N/A   Overcast
5:14 PM 77.0 °F - 59.4 °F 54% 30.00 in 10.0 mi ESE 4.6 mph - N/A   Mostly Cloudy
5:33 PM 77.9 °F - 59.9 °F 54% 30.00 in 10.0 mi ESE 9.2 mph - N/A   Mostly Cloudy
5:53 PM 79.7 °F - 60.4 °F 52% 29.99 in 10.0 mi SE 3.5 mph - N/A   Overcast
6:14 PM 78.8 °F - 60.1 °F 53% 29.98 in 10.0 mi ESE 6.9 mph - N/A   Mostly Cloudy
6:33 PM 78.6 °F - 59.4 °F 51% 29.98 in 10.0 mi SE 3.5 mph - N/A   Scattered Clouds
6:53 PM 77.7 °F - 59.5 °F 53% 29.98 in 10.0 mi SE 5.8 mph - N/A   Clear
7:14 PM 77.4 °F - 59.2 °F 53% 29.98 in 10.0 mi ESE 6.9 mph - N/A   Clear
7:34 PM 76.5 °F - 59.5 °F 56% 29.98 in 10.0 mi ESE 6.9 mph - N/A   Clear
7:53 PM 75.2 °F - 59.2 °F 57% 29.98 in 10.0 mi SE 3.5 mph - N/A   Clear
8:14 PM 73.6 °F - 59.7 °F 62% 29.99 in 10.0 mi SE 3.5 mph - N/A   Clear
8:33 PM 71.8 °F - 59.9 °F 66% 30.00 in 10.0 mi SE 3.5 mph - N/A   Clear
8:53 PM 70.2 °F - 59.9 °F 70% 30.00 in 10.0 mi ESE 3.5 mph - N/A   Clear
9:14 PM 70.9 °F - 60.3 °F 69% 30.01 in 10.0 mi SE 3.5 mph - N/A   Clear
9:33 PM 70.5 °F - 60.1 °F 69% 30.02 in 10.0 mi ESE 4.6 mph - N/A   Clear
9:53 PM 70.2 °F - 60.1 °F 70% 30.02 in 10.0 mi SE 3.5 mph - N/A   Clear
10:14 PM 69.1 °F - 60.1 °F 73% 30.02 in 10.0 mi ESE 3.5 mph - N/A   Clear
10:34 PM 68.9 °F - 60.3 °F 74% 30.02 in 10.0 mi SE 4.6 mph - N/A   Clear
10:53 PM 68.0 °F - 60.1 °F 76% 30.01 in 10.0 mi ESE 4.6 mph - N/A   Clear
11:14 PM 67.1 °F - 60.1 °F 78% 30.00 in 10.0 mi ESE 4.6 mph - N/A   Clear
11:33 PM 67.3 °F - 60.3 °F 78% 30.00 in 10.0 mi SE 4.6 mph - N/A   Clear